Location: Broekland
(52.3610°N, 6.2005°E)
Time: 22:08:22
(UTC+00:00)

Cosmos 2058 Rocket - Pass Details

Date: 19 May 2025
Orbit: 604 x 634 km, 82.5° (Epoch: 15 June)

Event Time Altitude Azimuth Distance (km) Brightness Sun altitude
Rises 20:37:49 0° 193° (SSW) 2,918 6.2 -8.4°
Reaches altitude 10° 20:40:03 10° 195° (SSW) 2,013 5.4 -8.6°
Maximum altitude 20:44:31 77° 282° (WNW) 654 3.3 -9.1°
Drops below altitude 10° 20:49:00 10° 8° (N) 2,015 6.3 -9.5°
Sets 20:51:15 0° 10° (N) 2,922 7.2 -9.7°
